This demonstration page uses our WeatherBlox Daily Observations layout. Learn more.

39.92423, -83.80882

Hourly Observations for June 7, 2016

Temp ( °F °C ) Dew Point ( °F °C ) Humidity (%) Winds ( mph kmh ) Pressure ( in mb ) Visibility ( mi km ) Precip ( " mm )
12:56 am 00:56 Clear 67 19.4 51 10.5 57 57 NW 5 7 29.68 1005 10 16.0934 0 0
1:56 am 01:56 Clear 64 17.7 53 11.6 68 68 NNW 5 7 29.68 1005 10 16.0934 0 0
2:56 am 02:56 Mostly Cloudy 64 17.7 54 12.2 70 70 NNW 7 11 29.67 1005 10 16.0934 0 0
3:56 am 03:56 Mostly Cloudy 63 17.2 54 12.2 73 73 Calm 29.68 1005 10 16.0934 0 0
4:56 am 04:56 Mostly Cloudy 61 16.1 55 12.7 80 80 WNW 5 7 29.68 1005 10 16.0934 0 0
5:56 am 05:56 Clear 59 15 53 11.6 80 80 NW 6 9 29.69 1005 10 16.0934 0 0
6:56 am 06:56 Mostly Sunny 58 14.4 55 12.7 90 90 WNW 5 7 29.71 1006 10 16.0934 0 0
7:56 am 07:56 Partly Cloudy 62 16.6 55 12.7 78 78 WNW 7 11 29.72 1006 10 16.0934 0 0
8:56 am 08:56 Sunny 65 18.3 53 11.6 65 65 NW 9 15 29.73 1007 10 16.0934 0 0
9:56 am 09:56 Sunny 68 20 52 11.1 57 57 W 13 20 29.74 1007 10 16.0934 0 0
10:56 am 10:56 Mostly Sunny 69 20.5 52 11.1 55 55 WNW 14 22 29.75 1007 10 16.0934 0 0
11:56 am 11:56 Partly Cloudy 69 20.5 53 11.6 57 57 W 15 24 29.76 1008 10 16.0934 0 0
12:56 pm 12:56 Mostly Sunny 70 21.1 51 10.5 51 51 WNW 16 26 29.77 1008 10 16.0934 0 0
1:56 pm 13:56 Partly Cloudy 69 20.5 49 9.4 49 49 W 15 24 29.78 1009 10 16.0934 0 0
2:56 pm 14:56 Mostly Sunny 71 21.6 47 8.3 43 43 W 18 30 29.78 1009 10 16.0934 0 0
3:56 pm 15:56 Partly Cloudy 71 21.6 49 9.4 46 46 WNW 15 24 29.8 1009 10 16.0934 0 0
4:56 pm 16:56 Cloudy 69 20.5 50 10 51 51 WNW 15 24 29.81 1009 10 16.0934 0 0
5:56 pm 17:56 Cloudy 69 20.5 48 8.8 47 47 W 13 20 29.81 1010 10 16.0934 0 0
6:56 pm 18:56 Cloudy 67 19.4 49 9.4 53 53 NW 12 19 29.82 1010 10 16.0934 0 0
7:56 pm 19:56 Cloudy 66 18.8 50 10 57 57 WNW 9 15 29.83 1010 10 16.0934 0 0
8:56 pm 20:56 Cloudy 64 17.7 50 10 61 61 WNW 8 13 29.83 1010 10 16.0934 0 0
9:56 pm 21:56 Cloudy 63 17.2 50 10 63 63 WNW 7 11 29.85 1011 10 16.0934 0 0
10:56 pm 22:56 Cloudy 63 17.2 50 10 63 63 WNW 6 9 29.86 1011 10 16.0934 0 0
11:56 pm 23:56 Mostly Clear 60 15.5 50 10 70 70 NW 6 9 29.86 1011 10 16.0934 0 0

Powered by AerisWeather